This demonstration page uses our WeatherBlox Daily Observations layout. Learn more.

39.92423, -83.80882

Hourly Observations for July 5, 2016

Temp ( °F °C ) Dew Point ( °F °C ) Humidity (%) Winds ( mph kmh ) Pressure ( in mb ) Visibility ( mi km ) Precip ( " mm )
12:08 am 00:08 Cloudy with Mist and Fog 72 22 72 22 100 100 SW 8 13 29.88 1012 5 8.0467 0 0
12:56 am 00:56 Cloudy with Mist and Fog 72 22.2 72 22.2 100 100 SW 7 11 29.87 1012 4 6.43736 0 0
1:56 am 01:56 Cloudy with Mist and Fog 72 22.2 72 22.2 100 100 SW 9 15 29.88 1012 5 8.0467 0 0
2:56 am 02:56 Cloudy with Mist and Fog 72 22.2 72 22.2 100 100 WSW 7 11 29.88 1012 5 8.0467 0 0
3:10 am 03:10 Cloudy with Mist and Fog 72 22 72 22 100 100 SW 7 11 29.88 1012 5 8.0467 0 0
3:28 am 03:28 Cloudy with Mist and Fog 72 22 72 22 100 100 SW 5 7 29.88 1012 4 6.43736 0 0
3:56 am 03:56 Cloudy with Mist and Fog 72 22.2 72 22.2 100 100 SSW 6 9 29.87 1012 4 6.43736 0 0
4:07 am 04:07 Cloudy with Mist and Fog 72 22 72 22 100 100 SW 6 9 29.88 1012 1.75 2.816345 0 0
4:21 am 04:21 Cloudy with Mist and Fog 72 22 72 22 100 100 SSW 6 9 29.88 1012 2.5 4.02335 0 0
4:36 am 04:36 Cloudy with Mist and Fog 72 22 72 22 100 100 SSW 8 13 29.88 1012 1.5 2.41401 0.01 0.254
4:43 am 04:43 Cloudy with Light Rain 72 22 72 22 100 100 SSW 7 11 29.88 1012 1.25 2.011675 0.03 0.762
4:56 am 04:56 Cloudy with Rain 72 22.2 72 22.2 100 100 SW 7 11 29.88 1012 1.25 2.011675 0.07 1.778
5:04 am 05:04 Cloudy with Light Rain 72 22 72 22 100 100 SW 7 11 29.88 1012 1.75 2.816345 0.01 0.254
5:17 am 05:17 Cloudy with Mist and Fog 72 22 72 22 100 100 WSW 5 7 29.88 1012 1.75 2.816345 0.02 0.508
5:26 am 05:26 Cloudy with Light Rain 72 22 72 22 100 100 W 3 6 29.88 1012 2 3.21868 0.03 0.762
5:37 am 05:37 Cloudy with Light Rain 72 22 72 22 100 100 WSW 5 7 29.88 1012 1.75 2.816345 0.03 0.762
5:49 am 05:49 Cloudy with Light Rain 72 22 72 22 100 100 W 5 7 29.88 1012 1.25 2.011675 0.04 1.016
5:56 am 05:56 Cloudy with Light Rain 71 21.6 71 21.6 100 100 WSW 7 11 29.88 1012 1.5 2.41401 0.05 1.27
6:09 am 06:09 Cloudy with Light Rain 72 22 72 22 100 100 W 7 11 29.88 1012 2.5 4.02335 0 0.0254
6:20 am 06:20 Cloudy with Light Rain 72 22 72 22 100 100 WNW 5 7 29.88 1012 4 6.43736 0.01 0.254
6:37 am 06:37 Mostly Cloudy with Light Rain 72 22 72 22 100 100 NNW 3 6 29.88 1012 1.75 2.816345 0.02 0.508
6:47 am 06:47 Cloudy with Light Rain 72 22 72 22 100 100 Calm 29.88 1012 3 4.82802 0.02 0.508
6:56 am 06:56 Cloudy 71 21.6 71 21.6 100 100 W 5 7 29.9 1012 7 11.26538 0.02 0.508
7:16 am 07:16 Cloudy 72 22 72 22 100 100 WNW 3 6 29.91 1013 10 16.0934 0 0
7:23 am 07:23 Cloudy 72 22 72 22 100 100 Calm 29.91 1013 10 16.0934 0 0
7:45 am 07:45 Cloudy 72 22 72 22 100 100 Calm 29.91 1013 10 16.0934 0 0
7:56 am 07:56 Cloudy 71 21.6 71 21.6 100 100 Calm 29.91 1013 10 16.0934 0 0
8:06 am 08:06 Cloudy 72 22 72 22 100 100 W 3 6 29.91 1013 9 14.48406 0 0
8:56 am 08:56 Mostly Cloudy 72 22.2 72 22.2 100 100 NW 5 7 29.93 1013 10 16.0934 0 0
9:08 am 09:08 Mostly Cloudy 73 23 72 22 94 94 NW 6 9 29.91 1013 10 16.0934 0 0
9:44 am 09:44 Cloudy 73 23 72 22 94 94 NNW 6 9 29.91 1013 10 16.0934 0 0
9:56 am 09:56 Cloudy 75 23.8 72 22.2 91 91 NW 6 9 29.93 1014 10 16.0934 0 0
10:15 am 10:15 Cloudy 75 24 72 22 89 89 NNW 6 9 29.94 1014 10 16.0934 0 0
10:29 am 10:29 Cloudy 75 24 72 22 89 89 NNW 6 9 29.94 1014 10 16.0934 0 0
10:56 am 10:56 Mostly Cloudy 76 24.4 71 21.6 84 84 NW 3 6 29.94 1014 10 16.0934 0 0
11:06 am 11:06 Mostly Cloudy 75 24 72 22 89 89 W 5 7 29.94 1014 10 16.0934 0 0
11:17 am 11:17 Mostly Cloudy 77 25 70 21 79 79 W 6 9 29.91 1013 10 16.0934 0 0
11:56 am 11:56 Cloudy 77 25 70 21.1 79 79 W 9 15 29.95 1014 10 16.0934 0 0
12:56 pm 12:56 Mostly Cloudy 78 25.5 71 21.6 79 79 W 9 15 29.96 1015 10 16.0934 0 0
1:56 pm 13:56 Partly Cloudy 80 26.6 70 21.1 72 72 W 12 19 29.95 1014 10 16.0934 0 0
2:56 pm 14:56 Partly Cloudy 81 27.2 67 19.4 62 62 W 10 17 29.94 1014 10 16.0934 0 0
3:56 pm 15:56 Partly Cloudy 83 28.3 68 20 61 61 W 12 19 29.94 1014 10 16.0934 0 0
4:56 pm 16:56 Mostly Cloudy 84 28.8 68 20 59 59 W 13 20 29.93 1014 10 16.0934 0 0
5:56 pm 17:56 Partly Cloudy 84 28.8 65 18.3 53 53 WNW 12 19 29.93 1014 10 16.0934 0 0
6:56 pm 18:56 Sunny 83 28.3 65 18.3 55 55 WNW 7 11 29.93 1014 10 16.0934 0 0
7:56 pm 19:56 Sunny 82 27.7 66 18.8 58 58 W 5 7 29.94 1014 10 16.0934 0 0
8:56 pm 20:56 Sunny 77 25 68 20 74 74 SSW 3 6 29.94 1014 10 16.0934 0 0
9:56 pm 21:56 Clear 72 22.2 68 20 87 87 Calm 29.93 1014 10 16.0934 0 0
10:56 pm 22:56 Clear 69 20.5 68 20 97 97 Calm 29.94 1014 10 16.0934 0 0
11:56 pm 23:56 Clear 68 20 67 19.4 96 96 S 5 7 29.95 1014 10 16.0934 0 0

Powered by AerisWeather